Regional Weather Roundup
Issued by NWS Huntsville, AL

Home | Current Version | Previous Version | Text Only | Print | Product List | Glossary On
Versions: 1 2 3 4 5 6 7 8 9 10 11 12 13 14 15 16 17 18 19 20 21 22 23 24 25 26 27 28 29 30 31 32 33 34 35 36 37 38 39 40 41 42 43 44 45 46 47 48 49 50
000
ASUS44 KHUN 080610
RWRHUN

WEATHER ROUNDUP FOR THE TENNESSEE VALLEY
NATIONAL WEATHER SERVICE HUNTSVILLE AL
100 AM CDT WED JUL 08 2015

ALZ001>004-080700-
NORTHWEST ALABAMA

CITY           SKY/WX    TMP DP  RH WIND       PRES   REMARKS
COURTLAND HCN    N/A     78  32  19 S3          N/A
RUSSELLVILLE     N/A     77 N/A N/A MISG        N/A
SHOALS AIRPORT PTCLDY    76  72  87 CALM      30.11S
6HR MIN TEMP:  76; 6HR MAX TEMP:  87;

SHOALS TVA RES   N/A     77 N/A N/A MISG        N/A
$$

ALZ005>007-016-080700-
NORTH CENTRAL ALABAMA

CITY           SKY/WX    TMP DP  RH WIND       PRES   REMARKS
DECATUR AP     CLEAR     76  72  87 S7        30.11F
6HR MIN TEMP:  76; 6HR MAX TEMP:  87;

HUNTSVILLE AP  CLEAR     78  72  81 S5        30.11F
6HR MIN TEMP:  78; 6HR MAX TEMP:  87;

HUN NWS/UAH      N/A     79  70  73 S5          N/A
MERIDIANVILLE  CLEAR     77  68  73 S3        30.12F
REDSTONE ARSN  CLEAR     75  73  91 S5        30.11F
VINEMONT AP    FAIR      75  71  86 S5        30.16F
$$

ALZ008>010-080700-
NORTHEAST ALABAMA

CITY           SKY/WX    TMP DP  RH WIND       PRES   REMARKS
ALBERTVILLE    PTCLDY    75  73  94 CALM      30.15F
FORT PAYNE     PTCLDY    70  68  94 CALM      30.16S
SCOTTSBORO AP  PTCLDY    75  73  94 CALM      30.14F
SCOTTSBORO HCN   N/A     73 N/A N/A MISG        N/A
VALLEY HEAD      N/A     72 N/A N/A MISG        N/A
$$

TNZ076-096-097-080700-
SOUTHEASTERN MIDDLE TENNESSEE

CITY           SKY/WX    TMP DP  RH WIND       PRES   REMARKS
TULLAHOMA      CLEAR     73  70  88 S3        30.14F
WINCHESTER     CLEAR     75  70  83 SE5       30.14F
$$

...SURROUNDING SITES...

CITY           SKY/WX    TMP DP  RH WIND       PRES   REMARKS
ATLANTA        MOCLDY    77  69  76 W8        30.16F
ANNISTON       PTCLDY    74  71  91 CALM      30.15F
BIRMINGHAM     PTCLDY    80  73  79 SE3       30.16F
CHATTANOOGA    PTCLDY    77  72  84 SW5       30.14F
CORINTH        FAIR      77  70  78 S8        30.07S
DALTON         PTCLDY    73  72  94 CALM      30.15F
GADSDEN        PTCLDY    82  68  61 CALM      30.14F
GOLDEN TRNGL   CLEAR     75  66  73 S5        30.11S
HALEYVILLE     FAIR      75  73  93 CALM      30.16S
JACKSON TN     MOCLDY    74  70  87 VRB3      30.06F
MEMPHIS        CLOUDY    81  74  79 S9G20     30.05S
NASHVILLE      CLOUDY    72  71  97 CALM      30.10F FOG
OXFORD MS      FAIR      73  66  78 S5        30.10S
ROME           PTCLDY    73  71  93 CALM      30.15S
SAVANNAH       CLEAR     75  32  20 CALM      30.08F
TUPELO         PTCLDY    74  70  87 SW6       30.09S
TUSCALOOSA     CLEAR     74  70  87 CALM      30.12F
$$

...GULF COAST WEATHER...

CITY           SKY/WX    TMP DP  RH WIND       PRES   REMARKS
GULFPORT       PTCLDY    83  73  72 S7        30.11F
PASCAGOULA     PTCLDY    74  73  97 CALM      30.12F
MOBILE         PTCLDY    77  73  87 S6        30.13F
GULF SHORES    CLEAR     73  72  98 CALM      30.13S
PENSACOLA      CLEAR     75  73  93 CALM      30.12F
DESTIN         CLEAR     83  76  79 CALM      30.14S HX  91
PANAMA CITY    CLEAR     76  74  92 CALM      30.14F
APPALACHICOLA  CLEAR     80  73  79 CALM      30.13F
$$



USA.gov is the U.S. government's official web portal to all federal, state and local government web resources and services.